Location: Ellingshausen
(50.5460°N, 10.4723°E)
Time: 23:44:42
(UTC+00:00)

Cosmos 1703 Rocket - Pass Details

Date: 18 January 2026
Orbit: 599 x 625 km, 82.5° (Epoch: 17 February)

Event Time Altitude Azimuth Distance (km) Brightness Sun altitude
Rises 05:33:53 0° 353° (N) 2,861 6.8 -14.9°
Reaches altitude 10° 05:36:09 10° 358° (N) 1,954 6.0 -14.5°
Maximum altitude 05:40:22 52° 75° (ENE) 756 4.4 -13.9°
Drops below altitude 10° 05:44:35 10° 153° (SSE) 1,948 6.7 -13.2°
Sets 05:46:50 0° 158° (SSE) 2,851 7.6 -12.9°
